Retour au catalogue

STARLINK-6311

ActifCommunicationsVLEO
NORAD 56537·PAYLOAD·🇺🇸 United States

Lancé May 14, 2023 depuis Cape Canaveral Space Force Station

Loading…

Prochains Passages (prochaines 24 heures)

TLE

FraisSource: CelesTrak SupGP

Époque: Sep 14, 2026, 20:50 UTC

1 56537C 23065AL  26257.86854167  .00024320  00000+0  88111-3 0  2578
2 56537  42.9995 238.3119 0001108 260.1921 262.1498 15.27558011    12

Suivez STARLINK-6311 en temps réel avec AllMySat

Download on the App Store